| time (UTC) | temp F | wind direction | speed knots | gust knots | rain 1hr in | rain 24hr in | rain mn in | humidity % | barometer mb |
| 20260504035049 | 58 | 180 | 1.7 | 3.5 | 0.00 | 0.00 | 0.00 | 48 | 1004.2 |
| 20260504034558 | 59 | 180 | 1.7 | 3.5 | 0.00 | 0.00 | 0.00 | 49 | 1004.2 |
| 20260504034044 | 59 | 180 | 1.7 | 3.5 | 0.00 | 0.00 | 0.00 | 47 | 1004.3 |
| 20260504033545 | 59 | 180 | 1.7 | 3.5 | 0.00 | 0.00 | 0.00 | 47 | 1004.4 |
| 20260504033058 | 60 | 180 | 2.6 | 3.5 | 0.00 | 0.00 | 0.00 | 47 | 1004.4 |
| 20260504032548 | 59 | 180 | 1.7 | 3.5 | 0.00 | 0.00 | 0.00 | 46 | 1004.4 |
| 20260504032050 | 59 | 180 | 1.7 | 3.5 | 0.00 | 0.00 | 0.00 | 47 | 1004.4 |
| 20260504031601 | 59 | 180 | 1.7 | 3.5 | 0.00 | 0.00 | 0.00 | 48 | 1004.4 |
| 20260504031044 | 59 | 180 | 1.7 | 2.6 | 0.00 | 0.00 | 0.00 | 48 | 1004.4 |
| 20260504030544 | 60 | 180 | 1.7 | 2.6 | 0.00 | 0.00 | 0.00 | 46 | 1004.4 |
| 20260504030052 | 60 | 180 | 1.7 | 2.6 | 0.00 | 0.00 | 0.00 | 45 | 1004.4 |
| 20260504025545 | 62 | 180 | 1.7 | 2.6 | 0.00 | 0.00 | 0.00 | 44 | 1004.3 |
| 20260504025047 | 62 | 175 | 0.9 | 2.6 | 0.00 | 0.00 | 0.00 | 42 | 1004.3 |
| 20260504024550 | 62 | 177 | 0.9 | 3.5 | 0.00 | 0.00 | 0.00 | 42 | 1004.3 |
| 20260504024044 | 62 | 171 | 1.7 | 3.5 | 0.00 | 0.00 | 0.00 | 42 | 1004.2 |
| 20260504023545 | 61 | 170 | 0.9 | 3.5 | 0.00 | 0.00 | 0.00 | 43 | 1004.2 |
| 20260504023051 | 62 | 196 | 0.9 | 1.7 | 0.00 | 0.00 | 0.00 | 43 | 1004.2 |
| 20260504022547 | 62 | 196 | 0.9 | 1.7 | 0.00 | 0.00 | 0.00 | 42 | 1004.1 |
| 20260504022051 | 63 | 196 | 0.9 | 2.6 | 0.00 | 0.00 | 0.00 | 42 | 1004.2 |
| 20260504021552 | 63 | 241 | 0.9 | 3.5 | 0.00 | 0.00 | 0.00 | 40 | 1004.0 |
| 20260504021048 | 64 | 229 | 0.0 | 5.2 | 0.00 | 0.00 | 0.00 | 40 | 1004.0 |
| 20260504020548 | 64 | 240 | 1.7 | 5.2 | 0.00 | 0.00 | 0.00 | 40 | 1004.0 |
| 20260504015548 | 64 | 256 | 2.6 | 5.2 | 0.00 | 0.00 | 0.00 | 39 | 1003.9 |
| 20260504015048 | 64 | 280 | 1.7 | 5.2 | 0.00 | 0.00 | 0.00 | 40 | 1003.8 |
| 20260504014557 | 64 | 278 | 1.7 | 5.2 | 0.00 | 0.00 | 0.00 | 40 | 1003.8 |
| 20260504014044 | 64 | 277 | 1.7 | 6.1 | 0.00 | 0.00 | 0.00 | 40 | 1003.7 |
| 20260504013544 | 65 | 271 | 2.6 | 6.1 | 0.00 | 0.00 | 0.00 | 40 | 1003.7 |
| 20260504013053 | 65 | 302 | 2.6 | 9.6 | 0.00 | 0.00 | 0.00 | 39 | 1003.7 |
| 20260504012547 | 65 | 288 | 2.6 | 9.6 | 0.00 | 0.00 | 0.00 | 39 | 1003.7 |
| 20260504012045 | 65 | 293 | 5.2 | 9.6 | 0.00 | 0.00 | 0.00 | 39 | 1003.6 |
| 20260504011549 | 66 | 319 | 3.5 | 8.7 | 0.00 | 0.00 | 0.00 | 40 | 1003.6 |
| 20260504011044 | 66 | 286 | 3.5 | 7.0 | 0.00 | 0.00 | 0.00 | 40 | 1003.6 |
| 20260504010544 | 66 | 271 | 2.6 | 6.1 | 0.00 | 0.00 | 0.00 | 40 | 1003.6 |
| 20260504010052 | 66 | 349 | 2.6 | 7.8 | 0.00 | 0.00 | 0.00 | 40 | 1003.5 |
| 20260504005544 | 67 | 282 | 3.5 | 7.8 | 0.00 | 0.00 | 0.00 | 40 | 1003.5 |
| 20260504005044 | 67 | 283 | 1.7 | 5.2 | 0.00 | 0.00 | 0.00 | 39 | 1003.3 |
| 20260504004550 | 68 | 256 | 1.7 | 6.1 | 0.00 | 0.00 | 0.00 | 39 | 1003.4 |
| 20260504004049 | 68 | 287 | 1.7 | 6.1 | 0.00 | 0.00 | 0.00 | 38 | 1003.4 |
| 20260504003548 | 68 | 259 | 2.6 | 6.1 | 0.00 | 0.00 | 0.00 | 38 | 1003.3 |
| 20260504003051 | 68 | 286 | 1.7 | 6.1 | 0.00 | 0.00 | 0.00 | 38 | 1003.3 |
| 20260504002547 | 68 | 271 | 2.6 | 8.7 | 0.00 | 0.00 | 0.00 | 38 | 1003.3 |
| 20260504002048 | 69 | 283 | 3.5 | 8.7 | 0.00 | 0.00 | 0.00 | 37 | 1003.3 |
| 20260504001553 | 69 | 254 | 1.7 | 7.0 | 0.00 | 0.00 | 0.00 | 38 | 1003.3 |
| 20260504001044 | 69 | 315 | 3.5 | 7.8 | 0.00 | 0.00 | 0.00 | 36 | 1003.1 |
| 20260504000545 | 69 | 267 | 3.5 | 10.4 | 0.00 | 0.00 | 0.00 | 37 | 1003.1 |
| 20260504000054 | 70 | 286 | 4.3 | 10.4 | 0.00 | 0.00 | 0.00 | 37 | 1003.1 |
| 20260503235548 | 70 | 282 | 3.5 | 9.6 | 0.00 | 0.00 | 0.00 | 36 | 1003.0 |
| 20260503235044 | 70 | 271 | 4.3 | 8.7 | 0.00 | 0.00 | 0.00 | 35 | 1003.0 |
| 20260503234550 | 70 | 209 | 3.5 | 8.7 | 0.00 | 0.00 | 0.00 | 35 | 1002.9 |
| 20260503234049 | 70 | 267 | 5.2 | 10.4 | 0.00 | 0.00 | 0.00 | 35 | 1002.9 |
| 20260503233547 | 70 | 286 | 5.2 | 10.4 | 0.00 | 0.00 | 0.00 | 35 | 1003.0 |
| 20260503233050 | 70 | 291 | 7.0 | 10.4 | 0.00 | 0.00 | 0.00 | 35 | 1003.0 |
| 20260503232544 | 71 | 307 | 5.2 | 10.4 | 0.00 | 0.00 | 0.00 | 37 | 1003.0 |
| 20260503232044 | 71 | 296 | 5.2 | 10.4 | 0.00 | 0.00 | 0.00 | 36 | 1003.0 |
| 20260503231550 | 71 | 219 | 2.6 | 11.3 | 0.00 | 0.00 | 0.00 | 38 | 1002.9 |
| 20260503231044 | 71 | 300 | 5.2 | 14.8 | 0.00 | 0.00 | 0.00 | 36 | 1003.0 |
| 20260503230545 | 71 | 253 | 7.0 | 14.8 | 0.00 | 0.00 | 0.00 | 36 | 1003.2 |
| 20260503225544 | 71 | 252 | 6.1 | 12.2 | 0.00 | 0.00 | 0.00 | 36 | 1003.3 |
| 20260503225043 | 71 | 264 | 4.3 | 12.2 | 0.00 | 0.00 | 0.00 | 36 | 1003.2 |
| 20260503224555 | 71 | 214 | 7.8 | 12.2 | 0.00 | 0.00 | 0.00 | 37 | 1003.2 |
| 20260503224043 | 71 | 334 | 6.1 | 11.3 | 0.00 | 0.00 | 0.00 | 36 | 1003.2 |
| 20260503223546 | 71 | 294 | 2.6 | 12.2 | 0.00 | 0.00 | 0.00 | 39 | 1003.3 |
| 20260503223048 | 71 | 175 | 5.2 | 12.2 | 0.00 | 0.00 | 0.00 | 39 | 1003.3 |
| 20260503222545 | 71 | 286 | 5.2 | 12.2 | 0.00 | 0.00 | 0.00 | 38 | 1003.3 |
| 20260503222044 | 71 | 250 | 4.3 | 12.2 | 0.00 | 0.00 | 0.00 | 39 | 1003.1 |
| 20260503221550 | 70 | 249 | 6.1 | 13.0 | 0.00 | 0.00 | 0.00 | 40 | 1003.3 |
| 20260503221044 | 70 | 306 | 7.0 | 13.0 | 0.00 | 0.00 | 0.00 | 40 | 1003.4 |
| 20260503220544 | 71 | 302 | 7.0 | 12.2 | 0.00 | 0.00 | 0.00 | 39 | 1003.3 |
| 20260503220056 | 71 | 243 | 3.5 | 8.7 | 0.00 | 0.00 | 0.00 | 43 | 1003.3 |
| 20260503215543 | 70 | 304 | 2.6 | 9.6 | 0.00 | 0.00 | 0.00 | 41 | 1003.4 |
| 20260503215044 | 70 | 209 | 4.3 | 12.2 | 0.00 | 0.00 | 0.00 | 40 | 1003.4 |
| 20260503214550 | 70 | 242 | 5.2 | 12.2 | 0.00 | 0.00 | 0.00 | 41 | 1003.4 |
| 20260503214044 | 71 | 269 | 5.2 | 13.0 | 0.00 | 0.00 | 0.00 | 40 | 1003.5 |
| 20260503213542 | 71 | 272 | 5.2 | 13.0 | 0.00 | 0.00 | 0.00 | 39 | 1003.4 |
| 20260503213100 | 71 | 234 | 5.2 | 13.9 | 0.00 | 0.00 | 0.00 | 41 | 1003.5 |
| 20260503212543 | 71 | 190 | 2.6 | 13.9 | 0.00 | 0.00 | 0.00 | 42 | 1003.3 |
| 20260503212045 | 71 | 167 | 5.2 | 13.9 | 0.00 | 0.00 | 0.00 | 42 | 1003.4 |
| 20260503211611 | 70 | 218 | 5.2 | 13.9 | 0.00 | 0.00 | 0.00 | 42 | 1003.4 |
| 20260503211042 | 70 | 188 | 4.3 | 13.9 | 0.00 | 0.00 | 0.00 | 42 | 1003.4 |
| 20260503210546 | 70 | 184 | 4.3 | 14.8 | 0.00 | 0.00 | 0.00 | 41 | 1003.5 |
| 20260503210052 | 70 | 280 | 7.0 | 14.8 | 0.00 | 0.00 | 0.00 | 41 | 1003.5 |
| 20260503205544 | 70 | 188 | 5.2 | 13.0 | 0.00 | 0.00 | 0.00 | 42 | 1003.5 |
| 20260503205045 | 70 | 197 | 7.0 | 14.8 | 0.00 | 0.00 | 0.00 | 42 | 1003.6 |
| 20260503204552 | 70 | 182 | 7.0 | 14.8 | 0.00 | 0.00 | 0.00 | 44 | 1003.7 |
| 20260503204042 | 69 | 183 | 7.8 | 15.6 | 0.00 | 0.00 | 0.00 | 44 | 1003.6 |
| 20260503203545 | 70 | 184 | 5.2 | 15.6 | 0.00 | 0.00 | 0.00 | 43 | 1003.8 |
| 20260503203052 | 69 | 188 | 4.3 | 13.0 | 0.00 | 0.00 | 0.00 | 44 | 1003.9 |
| 20260503202546 | 69 | 210 | 7.0 | 12.2 | 0.00 | 0.00 | 0.00 | 43 | 1004.0 |
| 20260503202045 | 69 | 178 | 6.1 | 15.6 | 0.00 | 0.00 | 0.00 | 43 | 1004.1 |
| 20260503201551 | 68 | 181 | 5.2 | 15.6 | 0.00 | 0.00 | 0.00 | 44 | 1004.1 |
| 20260503201048 | 68 | 180 | 6.1 | 17.4 | 0.00 | 0.00 | 0.00 | 44 | 1004.4 |
| 20260503200543 | 68 | 187 | 7.8 | 17.4 | 0.00 | 0.00 | 0.00 | 43 | 1004.4 |
| 20260503200058 | 68 | 238 | 6.1 | 13.9 | 0.00 | 0.00 | 0.00 | 45 | 1004.3 |
| 20260503195542 | 68 | 207 | 8.7 | 13.9 | 0.00 | 0.00 | 0.00 | 44 | 1004.5 |
| 20260503195043 | 68 | 196 | 7.0 | 16.5 | 0.00 | 0.00 | 0.00 | 45 | 1004.4 |
| 20260503194601 | 67 | 173 | 7.8 | 16.5 | 0.00 | 0.00 | 0.00 | 45 | 1004.6 |
| 20260503194045 | 68 | 267 | 6.1 | 15.6 | 0.00 | 0.00 | 0.00 | 44 | 1004.7 |
| 20260503193544 | 68 | 181 | 5.2 | 13.0 | 0.00 | 0.00 | 0.00 | 48 | 1004.8 |
| 20260503193057 | 67 | 201 | 6.1 | 13.9 | 0.00 | 0.00 | 0.00 | 46 | 1004.8 |
| 20260503192544 | 67 | 277 | 7.0 | 16.5 | 0.00 | 0.00 | 0.00 | 45 | 1004.9 |
| 20260503192044 | 67 | 179 | 9.6 | 16.5 | 0.00 | 0.00 | 0.00 | 44 | 1004.9 |
| 20260503191549 | 67 | 223 | 8.7 | 13.9 | 0.00 | 0.00 | 0.00 | 46 | 1004.9 |
| 20260503191044 | 67 | 213 | 6.1 | 13.9 | 0.00 | 0.00 | 0.00 | 46 | 1005.0 |
| 20260503190545 | 67 | 226 | 7.0 | 16.5 | 0.00 | 0.00 | 0.00 | 45 | 1005.1 |
| 20260503190052 | 67 | 233 | 7.0 | 16.5 | 0.00 | 0.00 | 0.00 | 45 | 1005.0 |
| 20260503185544 | 67 | 167 | 7.0 | 13.0 | 0.00 | 0.00 | 0.00 | 45 | 1004.9 |
| 20260503185044 | 67 | 194 | 5.2 | 12.2 | 0.00 | 0.00 | 0.00 | 45 | 1005.0 |
| 20260503184600 | 67 | 207 | 6.1 | 14.8 | 0.00 | 0.00 | 0.00 | 45 | 1005.1 |
| 20260503184044 | 66 | 188 | 9.6 | 14.8 | 0.00 | 0.00 | 0.00 | 45 | 1005.1 |
| 20260503183544 | 66 | 196 | 6.1 | 13.0 | 0.00 | 0.00 | 0.00 | 48 | 1005.2 |
| 20260503183050 | 66 | 184 | 7.0 | 13.0 | 0.00 | 0.00 | 0.00 | 45 | 1005.3 |
| 20260503182543 | 66 | 186 | 6.1 | 13.9 | 0.00 | 0.00 | 0.00 | 46 | 1005.1 |
| 20260503182044 | 66 | 214 | 7.8 | 13.9 | 0.00 | 0.00 | 0.00 | 48 | 1005.2 |
| 20260503181608 | 65 | 205 | 7.8 | 13.9 | 0.00 | 0.00 | 0.00 | 47 | 1005.2 |
| 20260503181044 | 65 | 207 | 7.0 | 13.9 | 0.00 | 0.00 | 0.00 | 47 | 1005.3 |
| 20260503180545 | 65 | 214 | 7.0 | 15.6 | 0.00 | 0.00 | 0.00 | 46 | 1005.5 |
| 20260503180112 | 64 | 207 | 7.8 | 15.6 | 0.00 | 0.00 | 0.00 | 46 | 1005.3 |
| 20260503175544 | 65 | 194 | 7.0 | 16.5 | 0.00 | 0.00 | 0.00 | 47 | 1005.4 |
| 20260503175044 | 64 | 236 | 8.7 | 16.5 | 0.00 | 0.00 | 0.00 | 47 | 1005.4 |
| 20260503174600 | 64 | 184 | 7.8 | 16.5 | 0.00 | 0.00 | 0.00 | 48 | 1005.4 |
| 20260503174048 | 64 | 213 | 11.3 | 16.5 | 0.00 | 0.00 | 0.00 | 47 | 1005.5 |
| 20260503173544 | 64 | 187 | 7.0 | 20.9 | 0.00 | 0.00 | 0.00 | 48 | 1005.6 |
| 20260503173059 | 63 | 229 | 9.6 | 20.9 | 0.00 | 0.00 | 0.00 | 48 | 1005.6 |
| 20260503172546 | 63 | 181 | 10.4 | 19.1 | 0.00 | 0.00 | 0.00 | 48 | 1005.7 |
| 20260503172048 | 63 | 236 | 8.7 | 17.4 | 0.00 | 0.00 | 0.00 | 49 | 1005.8 |
| 20260503171553 | 63 | 194 | 7.0 | 18.2 | 0.00 | 0.00 | 0.00 | 50 | 1005.9 |
| 20260503171048 | 62 | 221 | 9.6 | 19.1 | 0.00 | 0.00 | 0.00 | 48 | 1005.9 |
| 20260503170548 | 62 | 196 | 11.3 | 27.8 | 0.00 | 0.00 | 0.00 | 48 | 1005.9 |
| 20260503150547 | 56 | 178 | 5.2 | 16.5 | 0.00 | 0.00 | 0.00 | 66 | 1007.6 |
| 20260503150106 | 56 | 185 | 7.0 | 13.9 | 0.00 | 0.00 | 0.00 | 66 | 1007.7 |
| 20260503131045 | 50 | 176 | 9.6 | 16.5 | 0.00 | 0.00 | 0.00 | 72 | 1008.6 |
| 20260503130546 | 50 | 169 | 7.8 | 24.3 | 0.00 | 0.00 | 0.00 | 73 | 1008.7 |
| 20260503110544 | 48 | 211 | 5.2 | 10.4 | 0.00 | 0.00 | 0.00 | 59 | 1009.6 |
| 20260503081549 | 49 | 217 | 6.1 | 12.2 | 0.00 | 0.00 | 0.00 | 51 | 1010.4 |
| 20260503081045 | 49 | 192 | 5.2 | 12.2 | 0.00 | 0.00 | 0.00 | 51 | 1010.5 |
| 20260503080546 | 49 | 186 | 5.2 | 12.2 | 0.00 | 0.00 | 0.00 | 51 | 1010.5 |
| 20260503080105 | 49 | 186 | 5.2 | 10.4 | 0.00 | 0.00 | 0.00 | 51 | 1010.6 |
| 20260503072545 | 48 | 231 | 4.3 | 8.7 | 0.00 | 0.00 | 0.00 | 52 | 1010.8 |
| 20260503072043 | 48 | 180 | 4.3 | 8.7 | 0.00 | 0.00 | 0.00 | 52 | 1010.8 |
| 20260503071601 | 48 | 203 | 4.3 | 8.7 | 0.00 | 0.00 | 0.00 | 52 | 1010.9 |
| 20260503071050 | 48 | 202 | 4.3 | 8.7 | 0.00 | 0.00 | 0.00 | 52 | 1010.9 |
| 20260503070543 | 48 | 190 | 4.3 | 8.7 | 0.00 | 0.00 | 0.00 | 52 | 1010.9 |
| 20260503055046 | 48 | 180 | 6.1 | 11.3 | 0.00 | 0.00 | 0.00 | 51 | 1011.5 |
| 20260503054549 | 48 | 196 | 5.2 | 10.4 | 0.00 | 0.00 | 0.00 | 50 | 1011.5 |
| 20260503054045 | 48 | 161 | 7.0 | 10.4 | 0.00 | 0.00 | 0.00 | 50 | 1011.6 |
| 20260503053545 | 49 | 189 | 7.0 | 13.0 | 0.00 | 0.00 | 0.00 | 49 | 1011.6 |
| 20260503053052 | 49 | 179 | 6.1 | 13.0 | 0.00 | 0.00 | 0.00 | 50 | 1011.6 |
| 20260503052545 | 49 | 191 | 6.1 | 11.3 | 0.00 | 0.00 | 0.00 | 49 | 1011.6 |
| 20260503052046 | 49 | 178 | 7.0 | 11.3 | 0.00 | 0.00 | 0.00 | 48 | 1011.7 |
| 20260503051557 | 49 | 207 | 5.2 | 10.4 | 0.00 | 0.00 | 0.00 | 49 | 1011.7 |
| 20260503051045 | 49 | 178 | 6.1 | 10.4 | 0.00 | 0.00 | 0.00 | 48 | 1011.8 |
| 20260503050550 | 50 | 198 | 6.1 | 12.2 | 0.00 | 0.00 | 0.00 | 48 | 1011.9 |
| 20260503050053 | 50 | 188 | 7.0 | 12.2 | 0.00 | 0.00 | 0.00 | 47 | 1011.8 |
| 20260503045545 | 50 | 178 | 6.1 | 12.2 | 0.00 | 0.00 | 0.00 | 47 | 1011.9 |
| 20260503045045 | 50 | 192 | 7.0 | 12.2 | 0.00 | 0.00 | 0.00 | 47 | 1011.9 |
| 20260503044602 | 50 | 182 | 6.1 | 11.3 | 0.00 | 0.00 | 0.00 | 47 | 1011.9 |
| 20260503044045 | 50 | 187 | 6.1 | 11.3 | 0.00 | 0.00 | 0.00 | 48 | 1012.0 |
| 20260503043546 | 49 | 161 | 6.1 | 9.6 | 0.00 | 0.00 | 0.00 | 47 | 1012.1 |
| 20260503043055 | 49 | 190 | 6.1 | 8.7 | 0.00 | 0.00 | 0.00 | 47 | 1012.1 |
| 20260503042546 | 49 | 169 | 6.1 | 8.7 | 0.00 | 0.00 | 0.00 | 47 | 1012.2 |
| 20260503042046 | 49 | 184 | 6.1 | 8.7 | 0.00 | 0.00 | 0.00 | 47 | 1012.3 |
| 20260503041555 | 49 | 186 | 5.2 | 9.6 | 0.00 | 0.00 | 0.00 | 48 | 1012.4 |
| 20260503041045 | 49 | 191 | 5.2 | 9.6 | 0.00 | 0.00 | 0.00 | 47 | 1012.4 |
| 20260503040544 | 49 | 213 | 5.2 | 8.7 | 0.00 | 0.00 | 0.00 | 47 | 1012.5 |
| 20260503035547 | 49 | 181 | 5.2 | 10.4 | 0.00 | 0.00 | 0.00 | 47 | 1012.5 |